COSMOS 1741

Satellite information

Favourite Embed

Satellite Type and Status

PAYLOADIN ORBIT

Key statistics

Satellite COSMOS 1741 at a glance.

Uptime

14265

Days in orbit

Revolutions

≈ 14.3

Per day

Orbit

LEO

Low Earth Orbit

Inclination

74.0

Latest

Satellite identification and parameters

Extended collection of information and parameters for COSMOS 1741.

Object identification

Identified? True

Debris? False

Object name: COSMOS 1741

International designator: 1986-030A

Object number (NORAD): 16681

Object ID (CCSDS): 16681

Country: COMMONWEALTH OF INDEPENDENT STATES (CIS)

Current information (Y/N): Y

RCS size: LARGE

Orbital parameters

Period: 100.434 minutes

Inclination: 74.0239 deg

SMA: 7157.288 km

Apoapsis: 791.793 km

Periapsis: 766.513 km

RAAN: 71.4387 deg

Eccentricy: 0.001766

Argument of periapsis: 91.7139 deg

Mean anomaly: 268.6035 deg

Mean motion: 14.33771708 rev/day

Mean motion (dot): 0.00000223 rev/day2

B* drag term: 0.000089318 1/REarth

Two-line elements (TLE)

Creation date: May 7, 2025, 3:14 a.m.

Reference frame: TEME

Reference center: EARTH

Epoch: May 6, 2025, 10:31 p.m. UTC

TLE line 0: 0 COSMOS 1741

TLE line 1: 1 16681U 86030A 25126.93844972 .00000223 00000-0 89318-4 0 9991

TLE line 2: 2 16681 74.0239 71.4387 0017660 91.7139 268.6035 14.33771708 40981

Live tracking on map

Real-time ground track for satellite COSMOS 1741.

In-orbit conjunctions

A list of the most updated potential collisions computed for object COSMOS 1741.

Target Orbit TCA Probability of collision Miss distance Type
CZ-6A DEB LEO 2025-03-27 17:56:43 0.0003752113 693.0 (m) DEBRIS
CZ-6A DEB LEO 2025-01-02 16:19:14 0.0002337174 407.0 (m) DEBRIS
FENGYUN 1C DEB SSO 2024-11-15 23:40:38 0.0001006582 161.0 (m) DEBRIS
FENGYUN 1C DEB SSO 2024-10-01 10:47:39 0.0002038129 482.0 (m) DEBRIS
FENGYUN 1C DEB SSO 2024-09-15 14:32:19 0.000433933 102.0 (m) DEBRIS

Associated space launch

Military communications satellite

COSMOS 1741 was lifted into orbit during the mission ‘Kosmos-3M | Strela-2M 38’, on board a Kosmos-3M space rocket.

The launch took place on April 17, 1986, 9:02 p.m. from 132/1 (132L).

For more information about the launch, click the button.

Launch to space Kosmos-3M | Strela-2M 38
Kosmos-3M | Strela-2M 38

Agency: N/A

Status: Launch Successful

Launch date: April 17, 1986, 9:02 p.m. UTC

Rocket: Kosmos-3M

Launch pad: 132/1 (132L)

Location: Plesetsk Cosmodrome, Russian Federation

...

Latest news about this satellite

There are no fresh news available about this satellite. Check back as we update our databases every day.


Newsletter sign-up

Weekly statistics, charts and insights to help you stay on top of the space industry.